Weather History for Brest, Belarus

Change the Weather History Date:

Thursday, January 31, 2013

  Actual Average Record
Temperature  
Mean Temperature 38 °F -  
Max Temperature 39 °F - - ()
Min Temperature 36 °F - - ()
Degree Days  
Heating Degree Days 27    
Moisture  
Dew Point 35 °F    
Average Humidity 90    
Maximum Humidity 100    
Minimum Humidity 63    
Precipitation  
Precipitation 0.04 in - - ()
Sea Level Pressure  
Sea Level Pressure 29.55 in    
Wind  
Wind Speed 9 mph ()    
Max Wind Speed 18 mph    
Max Gust Speed 29 mph    
Visibility 4.8 miles    
Events Rain    
T = Trace of Precipitation, MM = Missing Value Source: Averaged Metar Reports

Daily Weather History Graph

Daily Weather History Graph

Search for Another Location

Airport:

Trip Planner

Search our weather history database for the weather conditions in past years. The results will help you decide how hot, cold, wet, or windy it might be!

Date:

Astronomy

Jan. 31, 2013 Rise Set
Actual Time 9:06 AM FET 6:10 PM FET
Civil Twilight 8:29 AM FET 6:47 PM FET
Nautical Twilight 7:48 AM FET 7:27 PM FET
Astronomical Twilight 7:08 AM FET 8:07 PM FET
Moon 11:36 PM FET (1/31) 10:16 AM FET (1/31)
Length of Visible Light 10h 17m
Length of Day
9h 04m
Waning Gibbous, 82% of the Moon is Illuminated
Jan 31
Waning Gibbous
Feb 3
Last Quarter
Feb 10
New
Feb 17
First Quarter
Feb 25
Full

Hourly Weather History & Observations

Time (FET) Temp. Windchill Dew Point Humidity Pressure Visibility Wind Dir Wind Speed Gust Speed Precip Events Conditions
12:00 AM 39 °F - 38 °F 92% 29.52 in 3 mi SW 8.9 mph - -   Mist
3:00 AM 39 °F - 38 °F 94% 29.49 in 1 mi WSW 4.5 mph - -   Mist
5:00 AM 39.2 °F 33.1 °F 37.4 °F 93% 29.47 in - WSW 8.9 mph 15.7 mph N/A Rain Light Rain Showers
6:00 AM 40 °F - 39 °F 93% 29.54 in 3 mi West 4.5 mph - -   Mist
6:00 AM 39.2 °F 33.1 °F 37.4 °F 93% 29.50 in 3.7 mi West 8.9 mph 15.7 mph N/A   Overcast
7:00 AM 37.4 °F 29.9 °F 37.4 °F 100% 29.53 in 3.7 mi West 11.2 mph 17.9 mph N/A   Overcast
8:00 AM 37.4 °F 29.1 °F 37.4 °F 100% 29.56 in 3.7 mi West 13.4 mph 20.1 mph N/A   Mostly Cloudy
8:30 AM 37.4 °F 30.9 °F 37.4 °F 100% 29.56 in 3.7 mi West 8.9 mph 15.7 mph N/A   Mostly Cloudy
9:00 AM 37 °F - 35 °F 92% 29.59 in 6 mi WSW 4.5 mph - -   Partly Cloudy
9:00 AM 37.4 °F 30.9 °F 37.4 °F 100% 29.56 in 3.7 mi WSW 8.9 mph 15.7 mph N/A   Mostly Cloudy
9:30 AM 37.4 °F 30.9 °F 37.4 °F 100% 29.56 in 3.7 mi West 8.9 mph 15.7 mph N/A   Mostly Cloudy
10:00 AM 37.4 °F 30.9 °F 35.6 °F 93% 29.56 in 5.0 mi WSW 8.9 mph 15.7 mph N/A   Overcast
10:30 AM 37.4 °F 30.9 °F 35.6 °F 93% 29.56 in 5.6 mi WSW 8.9 mph 15.7 mph N/A   Overcast
11:00 AM 37.4 °F 30.9 °F 33.8 °F 87% 29.56 in 5.6 mi WSW 8.9 mph 15.7 mph N/A   Mostly Cloudy
11:30 AM 37.4 °F 29.1 °F 33.8 °F 87% 29.56 in 6.2 mi WSW 13.4 mph 20.1 mph N/A   Overcast
12:00 PM 38 °F - 35 °F 83% 29.60 in 6 mi West 8.9 mph - -   Mostly Cloudy
12:00 PM 37.4 °F 29.1 °F 33.8 °F 87% 29.56 in 6.2 mi West 13.4 mph 20.1 mph N/A   Overcast
12:30 PM 37.4 °F 29.1 °F 33.8 °F 87% 29.56 in 6.2 mi WSW 13.4 mph 20.1 mph N/A   Overcast
1:00 PM 37.4 °F 29.1 °F 33.8 °F 87% 29.56 in 6.2 mi West 13.4 mph 20.1 mph N/A   Overcast
1:30 PM 37.4 °F 29.1 °F 33.8 °F 87% 29.56 in 6.2 mi West 13.4 mph 20.1 mph N/A   Overcast
2:00 PM 37.4 °F 29.9 °F 33.8 °F 87% 29.53 in 6.2 mi WSW 11.2 mph 17.9 mph N/A Rain Light Rain Showers
2:30 PM 37.4 °F 27.6 °F 33.8 °F 87% 29.53 in 4.3 mi WSW 17.9 mph 29.1 mph N/A Rain Light Rain Showers
3:00 PM 37 °F - 34 °F 86% 29.60 in 5 mi WSW 11.2 mph - - Rain Light Rain
3:00 PM 37.4 °F 27.6 °F 33.8 °F 87% 29.53 in 3.7 mi WSW 17.9 mph 29.1 mph N/A Rain Light Rain Showers
3:30 PM 37.4 °F 27.6 °F 33.8 °F 87% 29.56 in 5.0 mi WSW 17.9 mph 29.1 mph N/A Rain Light Rain Showers
4:00 PM 37.4 °F 27.6 °F 33.8 °F 87% 29.56 in 5.0 mi WSW 17.9 mph 29.1 mph N/A Rain Light Rain Showers
4:30 PM 37.4 °F 27.6 °F 33.8 °F 87% 29.56 in 5.0 mi WSW 17.9 mph 29.1 mph N/A Rain Light Rain Showers
6:00 PM 37 °F - 34 °F 85% 29.57 in 5 mi WSW 11.2 mph - - Rain Light Rain
9:00 PM 39 °F - 31 °F 63% 29.55 in 6 mi WSW 8.9 mph - -   Partly Cloudy